When you browse on this site, cookies collect data to enhance your experience and personalize the content and advertising you see.
Visit our Privacy Policy to learn more. By continuing to use the site, you agree to this use of cookies and data.

Hourly Weather Darwin

Today, 10 July, Friday

Time Temperature Precipitation Wind Pressure Humidity
00:00 +21°C° 0 mm 2 mps 759 mmHg 73%
01:00 +20°C° 0 mm 2 mps 759 mmHg 69%
02:00 +20°C° 0 mm 2 mps 759 mmHg 66%
03:00 +20°C° 0 mm 2 mps 759 mmHg 61%
04:00 +20°C° 0 mm 3 mps 759 mmHg 68%
05:00 +20°C° 0 mm 3 mps 759 mmHg 75%
06:00 +20°C° 0 mm 4 mps 759 mmHg 81%
07:00 +22°C° 0 mm 4 mps 759 mmHg 74%
08:00 +25°C° 0 mm 4 mps 760 mmHg 66%
09:00 +27°C° 0 mm 4 mps 760 mmHg 54%
10:00 +30°C° 0 mm 3 mps 760 mmHg 48%
11:00 +33°C° 0 mm 3 mps 759 mmHg 41%
12:00 +36°C° 0 mm 2 mps 759 mmHg 35%
13:00 +36°C° 0 mm 3 mps 758 mmHg 36%
14:00 +36°C° 0 mm 3 mps 757 mmHg 36%
15:00 +36°C° 0 mm 4 mps 757 mmHg 38%
16:00 +34°C° 0 mm 3 mps 757 mmHg 45%
17:00 +31°C° 0 mm 3 mps 757 mmHg 53%
18:00 +29°C° 0 mm 2 mps 757 mmHg 60%
19:00 +28°C° 0 mm 2 mps 758 mmHg 62%
20:00 +28°C° 0 mm 2 mps 758 mmHg 64%
21:00 +27°C° 0 mm 1 mps 758 mmHg 67%
22:00 +26°C° 0 mm 2 mps 759 mmHg 69%
23:00 +25°C° 0 mm 2 mps 759 mmHg 71%

Tomorrow, 11 July, Saturday

Time Temperature Precipitation Wind Pressure Humidity
00:00 +25°C° 0 mm 2 mps 759 mmHg 74%
01:00 +24°C° 0 mm 2 mps 759 mmHg 73%
02:00 +24°C° 0 mm 3 mps 759 mmHg 72%
03:00 +22°C° 0 mm 3 mps 758 mmHg 71%
04:00 +22°C° 0 mm 3 mps 758 mmHg 71%
05:00 +22°C° 0 mm 3 mps 758 mmHg 72%
06:00 +21°C° 0 mm 4 mps 758 mmHg 73%
07:00 +25°C° 0 mm 4 mps 759 mmHg 66%
08:00 +27°C° 0 mm 5 mps 759 mmHg 59%
09:00 +30°C° 0 mm 6 mps 760 mmHg 52%
10:00 +33°C° 0 mm 5 mps 759 mmHg 47%
11:00 +34°C° 0 mm 5 mps 759 mmHg 42%
12:00 +36°C° 0 mm 4 mps 758 mmHg 37%
13:00 +37°C° 0 mm 4 mps 757 mmHg 36%
14:00 +37°C° 0 mm 4 mps 757 mmHg 35%
15:00 +38°C° 0 mm 4 mps 756 mmHg 34%
16:00 +35°C° 0 mm 4 mps 756 mmHg 42%
17:00 +33°C° 0 mm 3 mps 756 mmHg 50%
18:00 +30°C° 0 mm 2 mps 756 mmHg 57%
19:00 +29°C° 0 mm 2 mps 757 mmHg 63%
20:00 +27°C° 0 mm 2 mps 757 mmHg 70%
21:00 +26°C° 0 mm 2 mps 758 mmHg 76%
22:00 +26°C° 0 mm 2 mps 758 mmHg 76%
23:00 +25°C° 0 mm 2 mps 758 mmHg 77%

Day after tomorrow, 12 July, Sunday

Time Temperature Precipitation Wind Pressure Humidity
00:00 +25°C° 0 mm 2 mps 758 mmHg 77%
01:00 +25°C° 0 mm 1 mps 758 mmHg 77%
02:00 +25°C° 0 mm 1 mps 758 mmHg 77%
03:00 +24°C° 0 mm 1 mps 758 mmHg 77%
04:00 +24°C° 0 mm 2 mps 758 mmHg 77%
05:00 +24°C° 0 mm 3 mps 758 mmHg 76%
06:00 +22°C° 0 mm 3 mps 758 mmHg 76%
07:00 +25°C° 0 mm 4 mps 759 mmHg 67%
08:00 +27°C° 0 mm 5 mps 759 mmHg 59%
09:00 +29°C° 0 mm 5 mps 760 mmHg 50%
10:00 +32°C° 0 mm 5 mps 759 mmHg 45%
11:00 +34°C° 0 mm 4 mps 759 mmHg 40%
12:00 +36°C° 0 mm 4 mps 759 mmHg 36%
13:00 +36°C° 0 mm 4 mps 758 mmHg 34%
14:00 +37°C° 0 mm 4 mps 757 mmHg 33%
15:00 +38°C° 0 mm 3 mps 756 mmHg 32%
16:00 +36°C° 0 mm 3 mps 756 mmHg 37%
17:00 +34°C° 0 mm 2 mps 756 mmHg 43%
18:00 +31°C° 0 mm 1 mps 756 mmHg 48%
19:00 +31°C° 0 mm 2 mps 757 mmHg 45%
20:00 +30°C° 0 mm 2 mps 758 mmHg 41%
21:00 +30°C° 0 mm 2 mps 758 mmHg 37%
22:00 +29°C° 0 mm 3 mps 759 mmHg 37%
23:00 +27°C° 0 mm 4 mps 759 mmHg 36%

13 July, Monday

Time Temperature Precipitation Wind Pressure Humidity
00:00 +26°C° 0 mm 5 mps 759 mmHg 36%
01:00 +25°C° 0 mm 5 mps 759 mmHg 38%
02:00 +22°C° 0 mm 6 mps 759 mmHg 41%
03:00 +21°C° 0 mm 6 mps 759 mmHg 43%
04:00 +21°C° 0 mm 6 mps 759 mmHg 43%
05:00 +20°C° 0 mm 6 mps 760 mmHg 43%
06:00 +20°C° 0 mm 7 mps 760 mmHg 44%
07:00 +21°C° 0 mm 7 mps 761 mmHg 38%
08:00 +23°C° 0 mm 7 mps 761 mmHg 33%
09:00 +26°C° 0 mm 8 mps 761 mmHg 27%
10:00 +28°C° 0 mm 7 mps 761 mmHg 25%
11:00 +30°C° 0 mm 6 mps 760 mmHg 23%
12:00 +33°C° 0 mm 5 mps 760 mmHg 21%
13:00 +34°C° 0 mm 5 mps 759 mmHg 21%
14:00 +35°C° 0 mm 4 mps 758 mmHg 21%
15:00 +36°C° 0 mm 3 mps 758 mmHg 20%
16:00 +34°C° 0 mm 3 mps 758 mmHg 25%
17:00 +31°C° 0 mm 2 mps 758 mmHg 30%
18:00 +29°C° 0 mm 1 mps 758 mmHg 34%
19:00 +27°C° 0 mm 2 mps 758 mmHg 34%
20:00 +26°C° 0 mm 2 mps 759 mmHg 34%
21:00 +25°C° 0 mm 2 mps 760 mmHg 34%
22:00 +23°C° 0 mm 4 mps 760 mmHg 34%
23:00 +23°C° 0 mm 5 mps 760 mmHg 34%

14 July, Tuesday

Time Temperature Precipitation Wind Pressure Humidity
00:00 +23°C° 0 mm 7 mps 760 mmHg 34%
01:00 +22°C° 0 mm 6 mps 760 mmHg 38%
02:00 +21°C° 0 mm 6 mps 760 mmHg 41%
03:00 +20°C° 0 mm 6 mps 760 mmHg 44%
04:00 +19°C° 0 mm 6 mps 760 mmHg 46%
05:00 +17°C° 0 mm 6 mps 760 mmHg 47%
06:00 +17°C° 0 mm 6 mps 760 mmHg 49%
07:00 +20°C° 0 mm 6 mps 760 mmHg 45%
08:00 +22°C° 0 mm 6 mps 761 mmHg 40%
09:00 +24°C° 0 mm 7 mps 761 mmHg 36%
10:00 +27°C° 0 mm 6 mps 761 mmHg 32%
11:00 +29°C° 0 mm 5 mps 760 mmHg 28%
12:00 +33°C° 0 mm 4 mps 760 mmHg 24%
13:00 +34°C° 0 mm 4 mps 759 mmHg 24%
14:00 +35°C° 0 mm 3 mps 758 mmHg 24%
15:00 +36°C° 0 mm 2 mps 757 mmHg 24%
16:00 +32°C° 0 mm 2 mps 758 mmHg 33%
17:00 +29°C° 0 mm 2 mps 758 mmHg 42%
18:00 +26°C° 0 mm 2 mps 758 mmHg 51%
19:00 +25°C° 0 mm 2 mps 759 mmHg 55%
20:00 +24°C° 0 mm 2 mps 759 mmHg 59%
21:00 +23°C° 0 mm 1 mps 760 mmHg 63%
22:00 +21°C° 0 mm 2 mps 760 mmHg 61%
23:00 +21°C° 0 mm 2 mps 759 mmHg 58%

15 July, Wednesday

Time Temperature Precipitation Wind Pressure Humidity
00:00 +21°C° 0 mm 2 mps 759 mmHg 56%
01:00 +20°C° 0 mm 3 mps 759 mmHg 55%
02:00 +20°C° 0 mm 4 mps 759 mmHg 55%
03:00 +20°C° 0 mm 5 mps 759 mmHg 54%
04:00 +20°C° 0 mm 5 mps 759 mmHg 57%
05:00 +19°C° 0 mm 5 mps 759 mmHg 60%
06:00 +19°C° 0 mm 5 mps 759 mmHg 63%
07:00 +21°C° 0 mm 5 mps 760 mmHg 61%
08:00 +23°C° 0 mm 6 mps 760 mmHg 59%
09:00 +26°C° 0 mm 6 mps 760 mmHg 57%
10:00 +28°C° 0 mm 5 mps 760 mmHg 51%
11:00 +32°C° 0 mm 5 mps 759 mmHg 45%
12:00 +34°C° 0 mm 4 mps 759 mmHg 39%
13:00 +35°C° 0 mm 4 mps 758 mmHg 38%
14:00 +35°C° 0 mm 4 mps 757 mmHg 38%
15:00 +36°C° 0 mm 4 mps 756 mmHg 38%
16:00 +34°C° 0 mm 4 mps 757 mmHg 46%
17:00 +31°C° 0 mm 3 mps 757 mmHg 54%
18:00 +29°C° 0 mm 2 mps 757 mmHg 62%
19:00 +28°C° 0 mm 2 mps 757 mmHg 67%
20:00 +26°C° 0 mm 2 mps 758 mmHg 73%
21:00 +25°C° 0 mm 3 mps 758 mmHg 79%
22:00 +24°C° 0 mm 3 mps 759 mmHg 76%
23:00 +24°C° 0 mm 3 mps 759 mmHg 73%
Show more